Simultaneous Nadir Overpasses (SNOs) Predictions

Prediction of SNOs between GOES-16 and NOAA-20 Satellite Orbit:

Table of predicted SNOs for the next 14.0 days since TLE Epoch: 9/18/2020
Index Date Time (GOES-16) GOES-16 Lat,Lon NOAA-20 Lat,Lon Distance(km) Time Diff (sec)
1 09/19/2020 06:37:58 -0.03, -75.20 0.60, -77.92 310.29 80
2 09/20/2020 06:16:33 -0.03, -75.21 -0.41, -73.38 207.41 80
3 09/21/2020 18:38:29 0.03, -75.23 -0.72, -78.70 394.06 80
4 09/22/2020 18:22:24 0.04, -75.25 0.29, -74.16 123.80 80
5 09/24/2020 06:44:10 -0.04, -75.25 0.90, -79.42 475.46 80
6 09/25/2020 06:22:45 -0.05, -75.27 -0.11, -74.89 42.65 80
7 09/27/2020 18:25:55 0.05, -75.32 -0.01, -75.67 39.44 80
8 09/28/2020 18:09:50 0.05, -75.34 1.00, -71.13 479.48 80
9 09/30/2020 06:31:36 -0.06, -75.37 0.19, -76.40 117.86 80
10 10/01/2020 06:10:12 -0.06, -75.39 -0.87, -71.87 401.51 80
